Temp
56 57 57 57 57 57 58 57 57 57 58 58 58 59 59 59 58 53 52 54 52 46 48 55 58 52 51 50 47 49 48 48 42 38 36 36 34 38 35 38 36 34 33 32 32 30 31 49 51 45 48 51 55 57
56 56 56 56 57 57 57 57 57 57 57 58 58 58 59 59 58 56 51 56 55 49 50 56 61 63 62 60 51 46 47 45 45 39 37 37 36 36 34 31 39 35 38 37 38 36 45 47 47 49 53 52 53 54
55 55 56 56 56 56 56 57 57 57 57 57 58 58 58 58 57 56 50 50 51 47 48 49 54 60 58 61 61 50 46 51 46 47 40 38 36 37 33 34 38 42 45 40 40 43 44 47 49 49 51 51 53 55
54 55 55 55 56 56 56 56 56 56 57 57 57 58 58 57 56 56 53 55 53 51 43 47 60 56 62 60 61 58 55 50 49 46 40 37 37 42 37 40 38 45 46 43 41 43 44 47 47 49 51 53 54 57
54 54 54 54 55 55 56 56 56 56 56 57 57 57 57 57 55 54 51 53 54 49 43 45 52 57 57 60 61 58 54 49 45 43 40 39 40 40 40 39 37 46 45 41 38 43 42 43 48 51 51 53 55 56
54 54 54 55 54 55 55 56 56 56 56 57 56 57 56 56 55 53 51 53 55 50 45 40 49 53 57 56 57 54 52 48 47 45 42 42 45 42 37 36 44 47 49 49 46 49 49 50 51 55 53 54 55 55
54 55 54 54 54 54 55 55 55 55 55 55 56 55 55 55 53 49 51 53 53 51 46 42 42 52 56 54 52 52 50 50 49 44 42 43 43 43 38 35 44 47 49 51 52 50 48 53 52 55 55 56 56 56
53 53 54 54 54 54 54 54 55 55 55 55 55 54 54 54 53 50 53 53 54 51 47 40 42 47 52 49 50 48 48 45 46 46 42 42 42 40 37 43 45 48 51 52 53 53 48 53 55 55 55 55 53 52
53 53 53 54 54 54 54 55 55 55 55 54 54 54 53 51 49 51 58 55 52 49 45 42 39 40 52 49 47 49 45 43 45 42 42 45 38 37 43 45 45 48 49 50 52 56 52 51 55 55 55 55 51 50
53 53 53 53 54 54 54 55 55 54 53 54 53 50 49 50 58 57 49 45 46 45 43 40 43 43 54 53 50 45 43 42 41 44 44 40 40 45 47 47 47 50 51 52 47 47 53 50 50 52 52 54 54 54
53 53 53 53 54 54 54 55 54 52 53 51 51 50 52 56 51 49 46 42 44 41 42 43 44 47 54 51 45 45 43 40 35 43 43 39 38 45 49 49 49 50 50 52 51 51 53 51 51 51 52 55 53 53
53 53 53 53 54 54 54 54 53 53 53 53 53 54 52 49 48 46 43 45 41 40 45 45 47 51 54 50 47 45 43 43 40 46 42 37 41 45 47 51 51 50 52 55 55 53 52 53 53 52 51 51 52 52
52 52 52 53 53 54 54 53 53 54 54 55 52 48 47 47 40 42 39 41 42 47 50 49 49 55 53 54 46 45 43 41 47 41 40 41 43 46 47 48 52 51 53 54 55 55 54 54 53 52 51 51 51 52
52 52 52 52 53 53 54 53 53 54 53 50 47 38 43 43 43 43 44 47 52 54 54 52 48 52 50 51 45 43 46 48 41 38 39 42 44 46 47 50 52 53 53 52 53 53 53 52 52 53 52 51 51 51
52 52 52 52 53 53 54 54 53 53 52 49 49 39 43 47 50 53 52 52 56 58 56 51 48 49 49 47 44 45 44 44 43 42 44 45 46 46 47 49 51 51 51 51 51 51 52 52 52 51 51 51 50 51
52 52 51 54 53 54 53 53 53 53 52 51 50 47 47 45 47 51 53 54 57 54 52 51 50 49 47 45 44 45 44 41 43 45 47 47 47 47 47 50 51 52 51 51 51 51 51 51 51 51 52 51 52 51
52 51 53 53 53 52 53 54 52 51 50 49 45 47 46 46 47 51 54 54 54 53 49 48 46 46 47 44 44 47 47 48 49 51 50 48 49 49 50 51 52 55 52 50 49 49 50 51 48 49 49 51 50 51
51 54 54 53 53 53 53 53 52 51 49 49 44 46 48 49 49 50 52 53 53 50 50 50 49 46 45 45 45 47 48 49 49 50 51 50 51 51 52 51 52 52 51 51 51 50 49 48 48 49 49 49 49 49
53 53 53 54 55 53 51 51 52 49 51 52 50 49 50 51 52 54 56 54 54 54 51 49 47 45 45 48 51 54 53 50 50 50 50 51 51 51 52 52 52 51 51 51 50 50 51 50 50 50 50 48 48 50
53 53 54 54 55 52 50 51 54 51 47 49 49 48 50 50 53 55 55 55 52 52 49 48 48 49 49 51 51 54 52 51 51 49 50 50 50 51 51 51 51 51 50 50 49 47 49 49 50 50 50 49 49 51
53 53 55 55 54 53 52 51 51 50 49 47 49 49 50 51 51 52 54 55 51 48 47 50 51 53 53 55 53 54 53 52 51 52 52 51 51 50 50 51 50 49 49 50 50 50 48 50 54 52 51 50 49 49
52 55 53 54 51 52 51 53 52 54 51 49 49 50 49 49 49 50 52 51 48 50 51 52 53 54 54 55 56 56 55 53 52 51 49 50 51 50 49 50 50 51 51 53 53 56 53 52 52 49 49 49 48 49
54 54 52 52 49 45 45 54 50 51 49 48 49 48 49 49 51 53 49 50 51 53 54 55 57 56 56 57 56 55 55 54 52 51 52 53 52 52 51 51 51 51 50 53 52 55 51 51 49 49 50 49 48 48
54 51 49 48 47 44 52 49 48 48 48 47 47 48 50 50 51 49 47 50 52 52 52 54 56 55 54 54 54 53 55 52 52 52 52 52 52 52 51 52 54 54 55 54 52 51 51 51 48 49 50 50 49 48
45 45 45 39 49 47 48 50 50 46 46 48 49 50 50 49 47 46 46 49 52 51 53 56 57 56 55 54 54 54 53 54 54 55 55 53 52 52 50 50 51 52 52 55 52 52 51 51 53 54 54 53 50 49
39 46 42 47 47 45 50 45 47 46 48 48 52 54 51 51 47 46 48 52 52 54 56 57 57 55 54 55 54 54 56 54 54 55 56 55 54 55 53 53 53 55 53 53 54 54 54 54 54 55 54 52 48 53
42 45 47 49 48 49 47 53 52 51 50 50 50 50 51 46 47 51 54 56 53 54 57 57 58 57 57 57 56 57 57 56 59 59 58 58 57 60 60 59 54 60 56 56 56 56 56 55 55 54 53 53 52 54
48 47 45 48 47 49 49 52 52 52 52 54 54 50 50 50 49 53 54 59 60 57 58 58 58 59 59 59 60 58 56 55 57 56 56 57 55 58 57 58 62 49 55 56 57 56 56 55 55 55 54 53 51 52
46 49 49 48 50 48 51 53 55 51 53 54 54 51 51 54 57 56 58 58 57 57 58 58 60 58 56 55 57 58 58 58 58 57 57 54 54 56 55 58 57 55 54 55 49 52 54 55 54 54 54 52 52 51
48 51 48 49 52 52 52 53 53 57 56 56 56 54 54 55 57 59 58 57 57 58 57 58 60 63 57 55 56 56 55 57 59 59 56 55 57 56 55 56 56 54 53 55 55 54 50 52 51 53 52 51 50 49
53 50 50 51 53 57 59 54 53 56 61 61 59 54 54 55 58 59 60 64 60 58 58 59 59 57 58 57 57 59 57 57 58 61 60 58 56 57 57 57 56 54 54 54 53 54 53 52 53 53 53 51 50 49
50 50 49 49 53 58 59 54 53 52 52 54 58 57 54 54 53 57 60 60 60 59 57 59 60 58 58 59 58 58 52 60 60 60 60 58 58 57 57 56 56 56 56 56 54 55 55 54 53 53 52 52 52 51
51 54 55 54 53 51 54 57 55 51 51 51 52 53 54 55 57 63 61 61 63 63 61 61 60 60 60 60 59 58 52 57 50 44 44 49 51 53 56 56 57 58 57 55 55 55 54 54 53 53 53 53 52 52
MSLP
1021.26 1021.30 1021.14 1021.12 1021.13 1021.19 1021.25 1021.25 1021.21 1021.12 1021.04 1020.94 1020.73 1020.47 1020.28 1019.99 1019.73 1019.63 1019.55 1019.09 1019.32 1019.53 1018.20 1017.28 1016.80 1016.62 1016.66 1016.86 1017.17 1017.49 1018.02 1018.39 1019.40 1020.62 1021.58 1022.02 1021.97 1021.46 1021.38 1020.80 1020.52 1020.81 1020.76 1020.49 1020.07 1018.92 1017.01 1015.45 1014.48 1014.72 1014.00 1013.24 1012.50 1011.33
1021.00 1021.01 1020.91 1020.76 1020.73 1020.73 1020.81 1020.90 1020.86 1020.80 1020.82 1020.72 1020.59 1020.38 1020.24 1020.02 1019.83 1019.74 1019.83 1019.26 1019.25 1019.50 1018.08 1016.96 1016.32 1015.82 1015.77 1016.01 1016.67 1017.52 1018.17 1018.62 1019.25 1020.69 1021.73 1022.11 1022.24 1021.89 1021.75 1021.41 1020.23 1020.40 1019.79 1019.64 1019.60 1017.62 1016.39 1015.73 1015.46 1014.93 1014.46 1013.91 1013.02 1012.19
1020.98 1020.73 1020.68 1020.55 1020.47 1020.36 1020.44 1020.46 1020.33 1020.39 1020.40 1020.44 1020.45 1020.22 1020.08 1019.88 1019.76 1019.83 1020.03 1019.86 1019.44 1019.38 1018.05 1017.02 1015.77 1014.90 1014.66 1015.05 1015.51 1016.98 1017.91 1018.02 1018.92 1019.17 1020.74 1021.74 1022.13 1021.77 1021.71 1020.99 1020.02 1019.13 1018.98 1019.24 1018.74 1016.80 1016.39 1015.64 1015.00 1014.63 1014.30 1013.82 1013.40 1012.21
1020.92 1020.71 1020.58 1020.43 1020.29 1020.16 1020.12 1020.09 1020.05 1020.06 1020.10 1020.10 1020.15 1020.06 1019.90 1019.72 1019.64 1019.76 1019.98 1019.67 1019.77 1019.85 1019.59 1017.11 1015.50 1015.10 1014.42 1014.53 1015.31 1015.80 1016.62 1017.74 1018.41 1019.31 1020.65 1021.46 1021.68 1021.04 1020.91 1020.15 1019.76 1018.60 1018.64 1018.43 1017.89 1016.96 1016.30 1015.59 1014.84 1014.32 1014.14 1013.76 1012.99 1011.91
1020.90 1020.69 1020.48 1020.32 1020.17 1020.00 1019.92 1019.83 1019.78 1019.74 1019.76 1019.77 1019.88 1019.84 1019.69 1019.58 1019.57 1019.74 1019.88 1019.78 1019.79 1020.23 1019.97 1018.23 1016.47 1015.17 1014.47 1014.70 1015.22 1015.79 1016.51 1017.77 1019.14 1020.16 1020.92 1021.06 1020.58 1020.67 1020.30 1020.13 1019.26 1017.98 1017.80 1017.91 1017.31 1016.69 1016.58 1015.73 1014.87 1014.25 1013.77 1013.27 1012.67 1011.84
1020.54 1020.45 1020.24 1020.12 1019.98 1019.82 1019.67 1019.59 1019.63 1019.53 1019.47 1019.54 1019.61 1019.59 1019.49 1019.47 1019.55 1019.76 1019.95 1020.03 1019.77 1020.02 1020.11 1019.38 1017.46 1016.21 1015.37 1015.33 1015.52 1016.21 1016.63 1017.67 1018.51 1019.54 1020.16 1019.99 1019.47 1019.65 1020.16 1019.74 1017.44 1016.92 1016.81 1016.64 1016.41 1016.04 1015.82 1015.39 1014.80 1014.32 1013.83 1013.45 1012.58 1012.44
1020.27 1020.04 1019.90 1019.76 1019.61 1019.55 1019.39 1019.31 1019.28 1019.23 1019.24 1019.35 1019.42 1019.34 1019.32 1019.46 1019.63 1019.92 1020.01 1019.89 1019.89 1020.08 1020.11 1019.75 1018.45 1016.57 1015.76 1015.71 1016.20 1016.51 1016.73 1017.32 1018.02 1018.93 1019.35 1019.26 1019.33 1019.43 1019.64 1019.01 1016.56 1016.19 1015.83 1015.51 1015.38 1015.64 1015.28 1014.60 1014.58 1014.47 1014.19 1013.90 1012.93 1013.02
1019.98 1019.73 1019.57 1019.40 1019.32 1019.23 1019.14 1019.02 1018.92 1018.95 1019.06 1019.21 1019.18 1019.29 1019.52 1019.67 1019.75 1019.76 1019.67 1019.56 1019.74 1020.01 1020.18 1020.17 1018.94 1017.40 1016.09 1016.33 1016.75 1016.60 1017.12 1017.61 1017.75 1018.02 1018.61 1018.97 1019.42 1019.39 1018.89 1016.72 1015.97 1015.56 1015.28 1014.78 1014.50 1014.57 1014.61 1014.51 1014.75 1014.77 1014.78 1014.54 1013.47 1013.81
1019.63 1019.47 1019.30 1019.10 1019.00 1018.92 1018.81 1018.66 1018.59 1018.75 1018.97 1019.10 1019.34 1019.47 1019.66 1019.91 1019.85 1019.78 1019.61 1019.71 1019.90 1020.49 1020.28 1020.15 1019.48 1017.91 1016.42 1016.49 1016.82 1016.90 1017.20 1017.79 1017.70 1017.74 1017.99 1018.22 1018.83 1018.41 1016.58 1015.94 1015.44 1014.89 1014.66 1014.38 1014.17 1014.31 1014.52 1014.72 1014.78 1014.88 1014.89 1014.74 1014.61 1014.87
1019.19 1019.08 1018.92 1018.78 1018.69 1018.64 1018.57 1018.41 1018.54 1018.67 1018.98 1019.29 1019.48 1019.59 1019.87 1019.82 1019.55 1019.62 1019.87 1020.04 1020.16 1020.37 1020.26 1019.93 1018.93 1017.90 1016.68 1016.43 1016.85 1017.36 1017.49 1017.74 1017.74 1017.45 1017.58 1017.70 1017.48 1016.23 1015.58 1015.10 1014.65 1014.46 1014.17 1014.05 1014.25 1014.29 1014.38 1014.60 1014.92 1015.03 1015.25 1014.87 1014.73 1015.10
1018.63 1018.50 1018.40 1018.33 1018.30 1018.36 1018.35 1018.31 1018.60 1018.95 1019.28 1019.38 1019.28 1019.52 1019.79 1019.61 1019.70 1019.67 1019.75 1019.93 1019.86 1019.91 1019.48 1018.71 1018.16 1017.39 1015.90 1016.25 1016.79 1017.05 1017.29 1017.48 1017.43 1017.25 1017.30 1017.33 1016.99 1015.92 1015.19 1014.87 1014.38 1014.27 1013.89 1013.83 1013.75 1013.65 1013.81 1014.17 1014.62 1015.11 1015.50 1015.63 1015.66 1015.84
1018.16 1018.02 1017.92 1017.87 1017.91 1018.04 1018.15 1018.23 1018.59 1018.78 1018.68 1018.66 1018.81 1019.29 1019.64 1019.70 1019.63 1019.65 1019.37 1019.14 1019.09 1018.60 1018.01 1017.53 1016.77 1016.54 1015.78 1015.66 1016.28 1016.75 1016.83 1017.07 1016.93 1016.75 1017.14 1017.17 1016.08 1015.45 1015.32 1014.96 1014.47 1014.09 1013.89 1013.79 1013.88 1014.07 1014.02 1014.28 1014.65 1015.21 1015.59 1015.94 1016.31 1016.44
1017.45 1017.28 1017.22 1017.27 1017.48 1017.72 1017.89 1018.08 1018.45 1018.45 1018.46 1018.59 1018.82 1019.23 1019.46 1019.59 1019.36 1018.95 1018.45 1017.98 1017.63 1016.95 1016.41 1016.18 1016.02 1015.57 1015.55 1015.59 1016.08 1016.49 1016.65 1016.74 1016.50 1016.78 1017.05 1016.45 1015.56 1015.36 1015.12 1014.85 1014.49 1014.13 1014.00 1013.84 1014.05 1014.26 1014.53 1014.90 1015.29 1015.56 1016.00 1016.18 1016.22 1016.31
1016.53 1016.44 1016.52 1016.75 1017.10 1017.42 1017.67 1017.97 1018.37 1018.64 1018.60 1018.53 1018.68 1019.14 1019.21 1018.76 1018.14 1017.30 1016.82 1016.25 1015.51 1015.37 1015.27 1015.43 1015.66 1015.44 1015.54 1015.63 1015.96 1016.30 1016.17 1016.28 1016.75 1017.06 1016.75 1015.66 1015.08 1015.08 1014.82 1014.44 1014.25 1014.09 1014.19 1014.10 1014.47 1014.65 1014.86 1015.12 1015.46 1015.74 1015.97 1016.10 1016.39 1016.56
1015.89 1015.95 1016.12 1016.51 1016.85 1017.20 1017.53 1017.90 1018.31 1018.74 1018.45 1018.27 1018.33 1018.29 1018.04 1017.32 1016.70 1016.09 1015.67 1015.54 1014.79 1014.55 1014.84 1015.30 1015.53 1015.66 1015.68 1015.76 1015.93 1015.96 1015.91 1015.91 1016.19 1016.28 1015.64 1014.74 1014.76 1014.49 1014.24 1014.17 1013.99 1014.08 1014.33 1014.49 1014.69 1014.90 1015.08 1015.21 1015.41 1015.59 1015.72 1015.81 1015.96 1016.06
1015.63 1015.91 1016.03 1016.16 1016.63 1017.10 1017.49 1018.02 1018.46 1018.49 1018.18 1018.00 1017.74 1017.41 1017.02 1016.98 1016.26 1015.60 1015.06 1014.85 1014.43 1014.49 1014.86 1015.16 1015.50 1015.65 1015.67 1015.69 1015.83 1015.57 1015.49 1015.31 1015.35 1015.06 1014.36 1014.32 1014.39 1014.17 1014.03 1013.87 1013.88 1013.90 1014.18 1014.30 1014.52 1014.77 1015.00 1015.29 1015.36 1015.35 1015.34 1015.53 1015.55 1015.73
1015.55 1015.40 1015.29 1015.87 1016.55 1017.09 1017.42 1017.57 1017.96 1017.89 1017.67 1017.42 1016.97 1016.59 1016.59 1016.34 1015.93 1015.18 1014.61 1014.44 1014.20 1014.59 1015.19 1015.41 1015.55 1015.30 1015.36 1015.40 1015.22 1014.73 1014.51 1014.33 1014.10 1014.02 1013.89 1013.81 1013.83 1013.93 1013.93 1013.69 1013.64 1013.67 1014.04 1014.30 1014.65 1014.93 1014.99 1015.01 1015.31 1015.49 1015.68 1015.46 1015.44 1015.45
1015.12 1014.77 1015.14 1015.77 1016.43 1017.02 1017.20 1017.15 1017.25 1017.24 1016.98 1016.42 1016.45 1015.76 1015.77 1015.29 1014.97 1014.61 1014.08 1013.97 1014.23 1014.46 1014.88 1014.94 1014.96 1015.04 1014.90 1014.67 1014.24 1013.70 1013.72 1013.45 1013.61 1013.67 1013.59 1013.49 1013.62 1013.64 1013.55 1013.59 1013.59 1013.80 1014.07 1014.22 1014.38 1014.55 1014.78 1015.00 1015.21 1015.26 1015.26 1015.18 1015.34 1015.21
1014.60 1014.64 1015.12 1015.53 1015.61 1016.02 1016.44 1016.85 1016.69 1016.37 1015.75 1015.53 1015.19 1015.01 1014.81 1014.36 1013.80 1013.34 1013.33 1013.44 1013.66 1013.83 1014.25 1014.70 1014.87 1014.65 1014.08 1013.49 1013.23 1013.06 1013.22 1013.53 1013.66 1013.71 1013.62 1013.56 1013.67 1013.71 1013.71 1013.74 1013.85 1014.01 1014.17 1014.28 1014.36 1014.41 1014.51 1014.56 1014.56 1014.66 1014.74 1014.94 1015.06 1014.79
1014.56 1014.73 1015.07 1015.41 1015.69 1015.69 1015.91 1016.04 1016.03 1015.82 1015.35 1014.79 1014.53 1014.30 1014.07 1013.61 1013.01 1012.81 1012.85 1013.17 1013.57 1014.07 1014.46 1014.39 1014.07 1013.36 1013.08 1012.56 1012.38 1012.35 1012.45 1012.81 1013.35 1013.95 1014.00 1013.89 1013.78 1013.84 1013.81 1013.86 1013.95 1014.03 1014.19 1014.19 1014.22 1014.35 1014.44 1014.40 1014.17 1014.16 1014.19 1014.36 1014.62 1014.34
1014.71 1015.17 1015.56 1015.54 1015.50 1015.41 1015.40 1015.26 1015.25 1015.06 1014.66 1014.45 1013.81 1013.70 1013.27 1012.90 1012.75 1012.67 1012.75 1012.98 1013.48 1013.76 1013.71 1013.23 1012.88 1012.27 1012.20 1011.98 1011.80 1011.92 1012.10 1012.44 1012.83 1013.06 1013.28 1013.67 1013.57 1013.83 1013.91 1013.92 1013.99 1014.07 1014.10 1013.98 1014.03 1013.87 1013.96 1013.77 1013.37 1013.25 1013.53 1013.61 1013.60 1013.52
1014.63 1014.95 1015.38 1015.55 1015.34 1015.26 1015.18 1014.69 1014.66 1014.24 1014.31 1013.90 1013.67 1013.12 1012.98 1012.71 1012.46 1012.24 1012.28 1012.87 1012.91 1012.47 1012.26 1012.18 1011.87 1011.80 1011.89 1011.76 1011.64 1011.65 1011.61 1011.94 1012.30 1012.67 1012.99 1013.20 1013.46 1013.78 1013.82 1013.57 1013.86 1013.79 1013.66 1013.51 1013.53 1013.51 1013.17 1012.86 1012.70 1012.75 1012.97 1012.97 1013.08 1012.90
1014.45 1014.78 1015.09 1015.22 1015.40 1015.31 1014.75 1014.28 1014.37 1013.95 1013.83 1013.43 1013.02 1012.72 1012.36 1012.06 1011.69 1011.64 1012.02 1011.91 1011.51 1010.91 1010.76 1010.90 1010.84 1010.96 1011.27 1011.16 1011.21 1011.34 1011.50 1011.88 1012.22 1012.45 1012.55 1012.58 1012.64 1012.82 1013.05 1013.30 1013.39 1013.34 1013.26 1012.88 1012.66 1012.70 1012.58 1012.06 1012.18 1012.43 1012.47 1012.47 1012.55 1012.57
1014.26 1014.65 1014.84 1014.98 1015.01 1014.73 1014.30 1014.13 1013.86 1013.63 1013.26 1013.00 1012.68 1012.07 1011.55 1011.26 1011.41 1011.58 1011.61 1011.01 1010.20 1010.00 1010.17 1010.24 1010.42 1010.89 1011.18 1011.16 1011.31 1011.35 1011.42 1011.69 1011.87 1012.04 1012.13 1012.32 1012.54 1012.38 1012.62 1012.60 1012.33 1012.26 1012.40 1012.13 1012.17 1012.04 1011.98 1011.90 1011.76 1011.85 1011.82 1011.92 1012.08 1012.24
1014.48 1014.79 1014.79 1014.70 1014.48 1014.38 1013.84 1013.21 1012.99 1013.03 1012.54 1012.11 1011.74 1011.00 1010.69 1010.86 1011.13 1011.21 1010.84 1010.09 1009.66 1009.69 1009.55 1009.68 1009.92 1010.27 1010.60 1010.73 1010.86 1010.89 1010.98 1011.20 1011.60 1011.77 1011.51 1011.78 1012.20 1012.34 1012.40 1012.22 1011.98 1011.74 1011.60 1011.97 1012.03 1011.94 1011.86 1011.65 1011.52 1011.56 1011.66 1011.73 1011.82 1012.02
1014.13 1014.12 1014.26 1013.81 1013.79 1013.66 1012.78 1012.43 1011.99 1011.74 1011.50 1011.08 1010.45 1010.04 1010.12 1010.44 1010.64 1010.44 1009.92 1009.32 1009.24 1009.09 1009.13 1009.24 1009.32 1009.83 1010.17 1010.23 1010.41 1010.62 1010.39 1010.44 1010.96 1011.10 1010.85 1010.92 1011.27 1011.45 1011.75 1011.98 1011.99 1011.67 1011.37 1011.63 1011.70 1011.90 1012.00 1011.93 1011.94 1011.97 1012.05 1012.01 1012.01 1012.10
1013.77 1013.42 1013.29 1012.93 1012.75 1012.46 1012.12 1011.25 1010.77 1010.72 1010.51 1010.08 1009.84 1009.90 1009.85 1009.99 1009.79 1009.37 1008.79 1008.48 1008.57 1008.37 1008.46 1008.72 1008.77 1009.08 1009.47 1009.54 1009.59 1009.53 1009.65 1009.93 1010.09 1010.06 1009.88 1009.75 1009.90 1010.18 1010.35 1010.79 1011.21 1011.06 1011.21 1011.39 1011.49 1011.63 1011.87 1011.97 1012.09 1012.20 1012.24 1012.11 1012.12 1012.04
1013.05 1012.72 1012.55 1012.21 1012.24 1011.77 1011.40 1010.73 1010.28 1009.96 1009.73 1009.31 1009.36 1009.48 1009.39 1009.28 1009.03 1008.50 1008.23 1007.95 1007.90 1008.05 1008.15 1008.17 1008.25 1008.37 1008.63 1008.71 1008.62 1008.90 1009.35 1009.69 1009.89 1010.01 1010.04 1010.01 1010.05 1010.07 1010.28 1010.19 1010.28 1010.74 1011.00 1011.09 1011.23 1011.46 1011.65 1011.83 1011.98 1012.09 1012.09 1012.22 1012.35 1012.40
1012.61 1011.98 1011.77 1011.50 1011.33 1011.00 1010.56 1009.96 1009.42 1009.29 1009.01 1009.04 1009.06 1008.98 1008.89 1008.63 1007.99 1007.89 1007.71 1007.72 1007.68 1007.92 1008.07 1008.22 1008.14 1008.02 1008.12 1008.12 1008.24 1008.36 1008.71 1009.22 1009.77 1010.02 1010.07 1010.34 1010.64 1010.60 1010.53 1010.64 1010.84 1010.82 1011.06 1011.25 1011.36 1011.52 1011.50 1011.65 1011.75 1011.92 1012.15 1012.43 1012.61 1012.72
1011.49 1010.96 1010.96 1010.55 1010.18 1009.72 1009.15 1008.87 1008.77 1008.43 1008.40 1008.42 1008.39 1008.43 1008.41 1008.10 1007.53 1007.20 1007.35 1007.57 1007.72 1007.78 1008.03 1008.08 1007.88 1007.90 1008.14 1008.49 1008.33 1008.53 1008.46 1008.63 1009.01 1009.37 1009.77 1009.92 1010.18 1010.06 1010.49 1010.80 1010.91 1010.99 1011.17 1011.35 1011.74 1011.70 1011.67 1011.80 1011.96 1012.19 1012.54 1012.79 1012.91 1013.04
1010.12 1010.16 1010.05 1009.74 1009.25 1008.45 1008.08 1008.02 1008.15 1008.12 1008.13 1008.17 1008.25 1008.38 1008.38 1008.07 1007.47 1007.07 1007.10 1007.01 1007.29 1007.37 1007.63 1007.82 1007.76 1007.81 1007.95 1008.13 1008.29 1008.29 1008.56 1008.38 1008.30 1008.41 1008.53 1008.78 1009.26 1009.62 1009.90 1010.05 1010.31 1010.67 1011.06 1011.45 1011.92 1011.92 1012.09 1012.25 1012.45 1012.65 1012.82 1012.96 1013.06 1013.14
1009.44 1009.38 1009.22 1009.12 1008.55 1007.94 1007.70 1008.00 1008.19 1008.15 1008.12 1008.12 1008.08 1008.01 1008.08 1008.09 1007.88 1007.23 1006.39 1006.55 1006.97 1007.14 1007.09 1007.29 1007.37 1007.40 1007.55 1007.73 1007.93 1008.05 1008.17 1008.07 1008.20 1008.24 1008.54 1008.80 1009.06 1009.22 1009.47 1009.64 1009.93 1010.42 1010.94 1011.25 1011.66 1011.89 1012.22 1012.34 1012.62 1012.81 1012.91 1012.94 1012.98 1013.02
1008.66 1008.53 1008.43 1008.38 1008.21 1008.16 1008.05 1008.00 1008.09 1008.11 1007.94 1007.94 1007.83 1007.75 1007.75 1007.76 1007.36 1006.56 1005.93 1005.90 1006.00 1006.14 1006.46 1006.51 1006.58 1007.02 1007.38 1007.60 1007.79 1007.85 1007.85 1007.93 1008.08 1008.27 1008.40 1008.68 1008.95 1009.25 1009.46 1009.81 1010.08 1010.36 1010.77 1011.24 1011.69 1012.07 1012.28 1012.38 1012.56 1012.67 1012.66 1012.66 1012.72 1012.75
Wind_Speed
9 9 9 10 11 10 9 8 10 10 8 9 9 9 9 7 9 5 3 3 3 1 6 5 4 4 2 2 3 3 5 5 4 4 3 2 2 3 2 4 3 4 2 4 1 4 8 3 8 2 3 5 4 7
8 8 9 9 10 10 10 10 11 11 9 9 9 8 9 7 5 3 2 2 0 3 6 3 6 7 9 10 5 1 5 4 5 5 1 2 2 1 3 4 2 3 7 4 8 7 5 4 7 7 7 10 9 6
8 8 8 8 9 9 9 9 10 10 8 9 8 8 9 7 1 2 1 3 2 3 6 3 5 5 4 10 6 5 2 4 3 4 5 3 3 4 3 6 4 4 3 3 3 6 7 8 7 6 6 9 10 8
9 9 8 8 8 8 8 9 9 9 8 8 7 8 8 6 2 2 1 1 0 1 1 8 4 6 7 9 8 4 6 4 6 3 3 3 3 5 4 5 5 5 4 4 6 8 9 8 8 7 6 9 12 4
9 8 8 9 9 8 8 8 8 8 7 7 7 7 6 5 3 1 1 1 1 2 2 6 10 4 5 8 10 7 8 6 3 2 2 4 3 3 2 1 4 4 5 3 5 5 4 8 8 8 9 10 9 3
8 9 9 9 8 8 9 8 7 7 7 7 6 5 4 2 2 1 1 1 3 2 2 4 5 6 3 4 9 7 5 4 4 5 4 3 3 4 1 3 7 5 5 5 5 2 4 8 7 5 7 6 7 11
9 10 9 9 8 8 9 9 8 7 6 5 5 4 2 5 1 1 1 1 1 1 2 5 6 5 3 2 0 1 1 2 4 3 3 4 2 4 2 4 8 6 6 7 10 5 7 7 2 5 2 4 12 12
11 10 9 8 8 9 9 9 8 7 5 5 2 7 6 3 2 1 1 1 3 1 2 0 5 5 1 1 1 1 1 2 1 3 2 3 2 2 4 10 8 5 6 8 5 7 2 1 1 3 1 2 13 11
10 11 11 9 8 9 9 8 6 6 5 7 9 8 2 1 1 1 1 4 1 2 1 1 2 4 2 1 1 3 2 1 1 3 3 4 2 6 9 7 6 5 4 3 3 5 4 2 3 4 4 5 11 9
13 12 11 10 8 8 7 5 5 6 10 11 2 2 1 1 1 2 3 3 3 1 2 3 1 4 2 1 1 2 2 2 1 3 3 2 5 5 6 7 6 5 5 5 2 4 2 2 1 3 4 3 6 6
13 12 11 10 8 8 7 6 9 12 6 1 2 1 1 1 1 1 1 2 2 2 3 4 5 2 2 2 3 2 2 1 1 4 2 2 4 4 4 4 2 3 1 5 3 3 6 5 5 5 5 5 4 4
15 13 11 10 9 8 7 9 15 3 2 3 3 3 1 1 1 1 3 1 3 5 3 4 5 6 3 3 3 1 1 2 4 1 2 3 6 3 4 5 5 2 4 4 5 5 3 6 7 7 6 5 4 4
15 13 11 10 10 9 8 11 14 2 3 1 2 2 2 1 1 4 4 3 3 4 4 3 1 2 1 2 2 2 1 4 2 4 3 6 4 3 4 5 6 3 3 2 4 5 6 7 6 6 7 4 5 5
15 10 10 10 10 10 9 11 13 2 1 2 3 1 4 3 5 5 5 4 5 3 3 3 0 1 0 1 2 1 3 2 2 2 5 5 4 3 5 3 4 5 6 3 5 6 7 8 7 6 5 6 7 6
8 7 9 9 10 10 10 10 13 1 1 2 3 4 6 5 3 3 4 3 3 2 3 2 2 3 1 1 1 1 2 3 4 5 5 4 4 4 3 1 5 5 5 6 5 7 6 7 7 5 5 6 6 4
6 6 6 8 12 10 11 10 3 1 2 2 4 3 3 0 4 2 3 3 1 3 2 3 2 1 3 3 1 5 2 4 4 4 5 2 2 3 4 4 6 5 5 6 7 6 7 7 7 6 3 4 5 4
11 3 12 12 13 13 15 3 3 4 3 3 4 3 3 3 5 4 2 4 2 3 3 2 2 6 2 1 3 3 4 4 5 4 3 2 3 4 3 3 4 5 5 5 4 5 6 4 1 2 4 6 5 6
3 2 14 16 12 8 0 2 3 4 6 4 3 3 4 4 3 4 3 3 4 4 4 4 3 2 4 4 3 4 4 4 2 3 3 3 3 3 1 2 3 4 4 4 4 4 3 4 5 5 6 6 4 5
2 6 19 20 9 4 4 3 2 3 6 3 3 3 3 4 4 4 3 3 2 2 5 2 2 4 5 4 4 3 3 3 3 3 2 2 1 2 3 2 3 3 4 4 4 4 4 6 6 4 5 2 4 4
2 17 20 14 4 3 3 2 2 2 3 4 2 3 3 4 3 2 3 3 4 4 2 4 5 4 5 4 4 4 4 4 5 2 2 3 2 2 4 5 4 4 3 4 3 2 2 4 4 5 5 5 4 7
5 6 5 1 1 1 1 3 2 4 3 3 3 2 4 1 2 3 3 3 2 4 4 4 4 5 3 4 2 2 3 5 5 6 6 4 4 4 3 4 3 3 4 4 5 5 6 6 7 5 4 5 5 6
3 7 3 2 1 1 2 3 2 2 2 3 3 2 3 2 3 4 3 2 4 5 5 4 4 3 2 2 5 5 4 5 3 2 5 4 3 3 4 5 3 5 5 6 4 6 6 6 5 5 5 5 4 5
7 3 2 2 1 1 5 1 2 3 3 3 2 2 3 2 3 2 2 4 5 5 6 5 5 5 4 4 1 2 4 6 4 4 5 5 4 4 3 2 3 5 5 6 5 6 6 8 4 4 4 4 4 3
3 3 4 5 4 4 1 2 2 2 2 2 2 4 4 3 2 2 3 4 4 2 4 6 4 3 1 2 2 3 4 4 2 2 3 4 5 5 4 5 6 5 6 4 3 4 4 5 5 4 3 2 3 4
4 3 5 3 3 2 4 4 4 2 4 4 3 4 3 2 2 3 4 4 2 3 4 4 5 4 4 3 2 3 4 5 5 5 3 5 3 2 2 1 1 2 3 3 2 1 2 2 4 4 4 2 2 1
3 5 7 7 4 4 4 3 5 7 4 3 5 1 2 3 2 5 4 2 3 4 4 5 6 4 3 4 3 3 5 5 3 2 4 6 6 6 6 5 3 2 1 2 4 4 4 3 4 5 5 4 5 4
2 5 4 4 2 2 3 4 3 2 3 4 2 1 2 2 4 4 3 2 3 4 4 4 4 5 4 4 4 4 3 5 6 3 4 5 5 6 8 7 6 4 4 5 4 5 5 4 4 4 5 2 2 2
3 2 5 4 4 3 3 2 3 3 3 3 2 1 2 3 4 4 5 3 3 3 3 4 4 4 4 5 5 2 3 4 2 1 3 5 3 1 1 3 4 10 4 4 6 5 4 4 5 5 4 4 4 2
3 3 3 4 4 3 6 4 3 3 3 3 2 2 3 3 2 2 2 3 3 2 4 4 2 1 2 2 2 3 4 7 9 8 8 4 1 2 2 3 4 4 3 3 4 5 4 3 3 4 5 6 4 3
5 4 3 3 4 6 5 6 3 3 3 3 2 1 2 3 4 2 2 2 3 3 4 3 3 2 3 2 3 2 1 5 5 5 6 6 6 4 5 6 5 4 3 3 5 3 8 6 6 4 4 4 3 3
1 3 3 4 4 4 5 4 1 1 1 1 0 3 3 3 4 2 4 3 4 2 1 2 1 3 5 5 4 5 2 2 5 7 5 5 6 6 6 6 5 5 4 4 5 4 4 4 4 5 5 5 5 4
4 6 5 4 4 2 1 3 3 3 2 0 2 1 2 2 2 4 3 4 3 3 6 4 4 4 4 4 3 3 4 3 5 4 8 5 5 5 6 5 5 5 5 5 6 6 6 7 5 5 5 6 6 6
3 2 3 2 1 1 2 2 1 2 2 4 4 5 4 5 5 4 2 3 5 6 5 5 3 5 6 6 5 2 3 1 2 2 0 8 10 8 5 5 5 6 7 7 6 6 7 7 6 6 6 6 6 5
Wind_Direction
279 276 270 262 257 254 261 272 284 298 312 316 321 331 340 353 3 35 285 330 94 219 271 220 213 166 29 115 145 256 44 348 47 74 120 223 178 263 346 256 243 210 219 244 262 248 275 325 338 273 299 278 294 299
294 289 281 274 265 254 258 265 273 282 288 299 310 315 321 335 357 36 318 324 77 169 246 253 242 227 194 200 136 357 178 173 175 95 170 122 236 252 176 266 234 270 196 211 191 229 248 262 233 277 288 288 283 302
325 318 311 298 281 269 265 265 270 276 273 279 298 311 313 322 318 67 262 291 21 18 303 353 255 283 218 194 160 127 286 172 166 165 155 165 212 132 217 238 250 275 152 236 324 259 252 254 268 264 258 268 284 280
324 325 330 315 300 288 279 273 269 270 262 268 295 305 311 318 232 138 311 317 155 64 332 283 334 323 298 154 169 167 144 71 99 79 107 139 193 175 223 234 212 224 149 278 259 284 289 290 262 282 296 266 271 313
308 306 310 308 302 300 289 276 273 271 268 264 278 295 316 312 165 148 253 333 28 123 235 287 311 292 328 153 139 138 122 108 92 69 93 219 220 133 263 323 253 191 199 215 258 253 257 274 303 298 300 295 291 11
305 305 298 293 296 296 283 278 278 275 270 259 268 283 304 211 158 156 92 14 18 112 70 328 297 308 9 63 127 150 141 113 124 150 202 240 249 112 157 252 259 220 195 188 246 171 253 276 294 301 294 347 55 57
307 305 296 292 289 289 289 282 282 276 274 259 267 283 216 154 137 125 179 145 70 108 78 320 326 286 311 104 22 174 104 171 140 167 209 178 212 122 163 231 250 251 251 239 229 244 276 234 297 347 12 23 64 64
312 310 294 287 286 282 286 277 276 263 229 242 208 124 119 123 1 33 340 332 156 105 88 255 274 339 319 213 282 125 194 40 269 194 87 141 59 81 257 248 268 258 275 283 245 201 262 324 76 86 322 333 72 54
309 305 304 285 278 279 286 285 246 202 194 141 126 120 104 65 109 205 332 96 51 128 217 131 205 254 3 252 230 355 81 331 287 201 230 114 162 223 230 252 265 233 190 280 5 100 129 160 193 100 104 112 101 98
308 305 294 289 271 270 279 266 179 156 135 139 165 92 123 205 315 128 24 39 14 342 53 223 218 260 181 128 336 27 41 231 291 264 110 151 247 266 271 258 245 247 188 147 117 316 172 153 183 132 127 45 86 94
295 293 285 278 254 254 261 198 142 122 128 215 138 127 76 311 95 60 170 135 191 260 198 233 197 244 255 184 221 183 220 229 16 268 151 280 282 246 303 301 247 216 103 103 82 230 211 164 157 128 122 115 104 117
288 285 276 265 230 233 242 179 162 174 179 188 116 106 116 88 76 235 194 193 183 228 213 192 220 197 264 107 102 310 235 30 257 251 57 292 255 258 324 253 247 276 233 85 93 127 119 129 145 145 143 143 152 147
283 276 261 232 211 214 222 182 178 19 142 120 109 90 93 166 155 201 208 249 238 203 219 208 227 213 6 64 71 68 15 252 360 29 271 235 239 267 247 263 232 236 276 28 116 106 127 113 118 138 154 181 174 161
282 259 230 201 200 202 207 184 184 224 306 168 151 148 200 204 243 196 203 206 235 198 170 143 193 145 263 66 139 135 241 107 29 315 249 258 247 227 233 240 166 211 221 238 165 136 139 147 163 165 184 174 172 190
262 217 187 196 195 194 189 178 172 201 251 226 154 222 220 232 268 251 231 268 253 165 121 80 35 93 352 46 1 44 279 247 205 236 242 255 291 293 303 261 191 176 166 155 155 150 152 149 157 177 197 195 203 224
198 152 197 177 185 180 163 135 136 237 242 230 228 246 237 13 274 256 228 238 245 116 71 59 102 108 235 171 144 229 216 233 247 225 242 262 269 273 265 253 207 184 176 167 169 179 176 177 184 205 203 217 233 232
167 223 176 170 163 156 155 133 160 210 219 223 245 221 213 262 236 243 218 241 162 107 161 129 176 208 128 194 238 200 205 211 224 261 279 236 266 315 304 188 189 171 171 169 184 200 216 225 83 116 251 259 245 249
232 205 158 147 140 131 151 208 191 180 233 220 221 229 196 211 224 258 245 177 127 150 129 206 160 195 211 206 237 236 230 251 235 228 256 284 315 314 289 159 157 168 167 188 206 223 207 190 210 232 236 253 268 264
245 162 153 154 164 139 162 181 208 230 228 221 239 221 216 235 222 226 191 169 154 151 119 103 209 216 230 220 219 227 210 196 207 238 276 322 162 202 166 164 150 165 192 203 202 213 215 213 220 225 237 209 242 267
165 155 160 171 222 162 137 167 188 244 257 234 240 239 208 213 228 222 172 142 146 134 157 202 214 224 201 237 203 198 200 171 132 118 264 270 232 182 181 174 200 198 208 251 264 233 254 269 248 234 230 225 227 267
113 134 146 226 229 251 248 169 198 214 250 241 250 210 251 233 218 194 183 142 123 188 211 217 226 246 226 268 207 197 174 158 179 170 195 210 221 193 222 242 241 214 209 227 238 253 231 237 246 238 233 242 225 234
105 132 117 227 194 173 257 225 226 265 228 250 304 219 249 237 225 214 136 148 216 218 193 194 218 228 237 247 239 199 196 178 194 108 86 108 153 203 230 222 186 233 226 235 243 254 254 249 247 226 230 263 234 243
122 115 116 111 122 98 259 140 224 223 231 250 308 264 249 234 222 120 181 212 236 214 196 199 209 195 210 266 185 143 164 166 180 200 204 210 219 232 243 258 226 233 256 259 226 255 250 271 278 241 227 239 238 250
145 130 160 176 170 217 205 232 223 245 264 257 227 255 229 213 134 105 242 236 231 182 170 198 172 145 71 121 184 216 212 179 171 260 217 186 229 252 208 218 227 231 227 280 273 275 281 283 273 238 245 210 201 225
105 194 129 212 210 205 223 206 192 199 242 217 227 253 206 115 151 224 237 261 222 212 196 175 177 176 173 205 233 228 200 164 177 204 227 179 172 340 330 340 255 238 150 155 210 110 21 39 57 53 31 39 91 170
179 203 170 193 177 190 208 204 209 208 213 242 234 188 119 134 197 247 241 247 225 195 186 181 171 157 206 203 189 199 225 185 142 197 257 190 180 172 177 162 154 294 160 177 134 119 96 89 93 89 80 64 79 94
214 211 208 225 201 210 265 253 262 216 227 224 245 165 138 233 240 253 274 224 211 215 169 177 176 162 187 220 229 242 188 165 184 210 249 192 168 185 166 167 185 211 170 179 135 134 127 107 93 84 86 55 39 181
249 249 191 195 194 210 239 248 235 218 225 238 84 253 228 219 248 235 216 209 186 159 190 198 205 202 204 218 222 210 154 141 123 73 69 42 29 16 202 128 136 154 143 149 147 147 143 131 113 112 108 111 95 72
241 247 177 221 202 201 216 222 238 225 204 159 196 240 251 227 250 233 236 183 161 118 77 74 341 311 316 312 231 209 145 147 156 173 170 177 209 297 105 124 147 136 139 158 122 80 65 120 136 135 134 130 122 99
246 179 198 233 209 210 230 184 216 221 190 204 183 358 339 285 253 238 115 93 127 162 165 192 248 174 178 203 162 101 148 173 179 158 165 188 215 166 156 168 174 170 174 185 97 50 53 80 71 68 91 89 85 89
208 159 191 209 235 232 224 197 341 6 330 323 191 155 227 278 311 262 210 186 172 194 152 230 297 204 170 166 178 146 204 258 195 182 169 152 154 160 179 175 175 171 183 151 118 119 125 103 118 118 115 132 158 144
191 199 177 210 245 286 74 138 176 181 233 222 271 174 0 33 277 277 243 142 145 208 230 193 201 229 170 133 160 195 210 203 195 199 158 156 163 182 179 165 152 145 172 160 154 141 142 139 147 150 152 159 172 185
195 193 195 167 75 49 287 125 169 260 228 207 223 204 200 190 226 256 286 192 183 195 197 203 171 135 144 145 172 217 231 204 33 346 145 177 167 162 143 138 134 123 121 116 121 137 148 153 162 176 177 177 191 202